{"data":{"norad_id":68363,"epoch":"2026-05-25T03:37:21.785376Z","epoch_age_seconds":58848,"freshness":"FRESH","line1":"1 68363U 26061D   26145.15094659  .00486833  11666-3  54482-3 0  9999","line2":"2 68363  82.2968  37.4155 0019875 181.6102 178.5120 16.08971499  9958","mean_motion":16.08971499,"eccentricity":0.0019875,"inclination_deg":82.2968,"raan_deg":37.4155,"arg_perigee_deg":181.6102,"mean_anomaly_deg":178.512,"bstar":0.00054482,"rev_number":995,"period_min":89.498167052367,"perigee_km":236.49348415991,"apogee_km":262.83900205126,"semimajor_km":6627.8032431056,"source":"CELESTRAK","updated_at":"2026-05-25T13:38:07.764315Z"}}